Location: NJAA Observatory
(40.6819°N, 74.8979°W)
Time: 16:21:57
(UTC-04:00)

Cosmos 2263 Rocket - Visible Passes

Search period start: 25 April 2017 00:00
Search period end: 05 May 2017 00:00
Orbit: 825 x 847 km, 71.0° (Epoch: 24 April)

Date Brightness Start Highest point End Pass type
(mag) Time Alt. Az. Time Alt. Az. Time Alt. Az.
25 Apr 2.4 21:44:13 10° NNW 21:49:43 63° WSW 21:52:31 29° S visible
26 Apr 2.4 21:27:28 10° NNW 21:33:01 69° WSW 21:36:40 22° S visible
27 Apr 2.3 21:10:44 10° NNW 21:16:19 76° WSW 21:20:53 16° SSE visible
28 Apr 2.2 20:54:01 10° NNW 20:59:36 82° WSW 21:05:10 10° SSE visible
29 Apr 2.2 20:37:17 10° NNW 20:42:53 89° WSW 20:48:29 10° SSE visible
29 Apr 4.8 22:24:41 10° W 22:25:54 11° W 22:27:08 10° WSW visible
30 Apr 2.2 20:20:34 10° NNW 20:26:10 84° ENE 20:31:46 10° SSE visible
30 Apr 4.8 22:07:15 10° WNW 22:09:15 12° W 22:11:16 10° WSW visible
01 May 4.7 21:50:03 10° WNW 21:52:37 13° W 21:55:09 10° SW visible
02 May 4.7 21:32:59 10° WNW 21:35:57 15° W 21:38:55 10° SW visible
03 May 4.7 21:15:58 10° WNW 21:19:17 16° W 21:22:36 10° SW visible
04 May 4.7 20:59:00 10° WNW 21:02:38 18° W 21:06:15 10° SW visible
